Theta_e
313 313 313 313 314 313 314 313 314 314 314 314 314 313 313 313 313 304 297 302 308 316 319 311 311 308 304 298 302 302 291 291 293 293 293 297 295 303 307 304 308 321 334 342 347
313 313 313 313 313 313 313 313 313 313 314 313 313 313 312 312 304 300 309 313 317 320 314 307 302 305 298 297 296 297 294 294 297 299 295 299 298 300 303 303 319 334 339 343 344
312 313 312 312 312 313 312 312 312 312 313 313 312 312 312 310 296 296 324 318 325 325 313 314 304 302 297 296 294 294 295 301 301 303 300 300 301 303 301 300 311 332 337 340 340
312 312 312 312 312 312 312 312 312 312 311 312 312 313 313 307 284 305 322 321 326 315 310 308 300 292 293 293 296 291 297 303 303 304 302 302 303 302 302 303 306 336 340 340 339
311 312 311 311 311 311 312 312 311 312 312 312 312 313 308 297 296 306 317 315 309 305 305 304 297 293 289 293 296 294 296 297 301 304 304 304 303 302 302 307 306 330 336 337 337
311 311 311 311 311 312 312 312 312 311 312 312 312 313 303 290 304 307 307 307 306 301 302 301 299 299 295 293 294 296 297 297 299 297 300 302 303 302 306 306 305 314 327 331 333
311 310 310 310 311 311 311 312 312 312 313 313 312 309 301 296 306 306 306 303 305 305 301 301 300 299 300 296 299 298 294 298 298 299 298 300 298 300 306 304 303 305 311 319 330
311 311 311 310 311 311 311 312 312 313 314 314 313 307 295 307 307 305 306 305 307 307 305 304 302 297 294 299 297 291 293 289 297 299 301 299 293 302 304 302 301 304 303 311 311
311 310 311 310 310 310 311 311 313 314 315 314 306 300 295 312 307 310 308 304 305 304 303 306 298 294 295 289 287 290 286 289 293 299 299 298 295 302 303 301 300 301 302 304 304
310 310 310 311 311 311 311 311 311 312 313 312 309 297 301 301 308 309 309 307 303 301 300 298 294 287 289 288 280 285 288 292 292 297 298 297 296 300 302 299 300 300 301 302 303
310 310 310 310 311 310 307 301 296 296 301 295 297 298 300 305 308 305 306 303 301 297 290 294 288 283 286 288 290 289 290 291 295 299 296 296 297 298 300 298 297 298 300 300 302
309 310 310 310 311 310 305 298 300 300 292 301 301 300 303 305 298 302 306 298 296 291 293 289 284 290 292 291 290 289 287 288 295 299 296 296 294 300 298 298 298 298 299 300 301
309 310 310 310 309 305 301 302 305 301 291 297 301 301 301 303 299 300 304 301 296 292 292 286 288 293 291 289 288 288 287 289 290 296 298 295 294 295 300 302 300 300 301 302 303
309 309 309 309 301 300 300 305 304 302 286 292 297 299 302 302 298 307 306 301 297 292 293 290 293 291 289 288 289 284 292 293 292 292 287 297 287 291 298 298 299 299 299 302 301
309 309 309 308 298 298 303 302 303 300 276 294 296 305 302 299 299 303 308 300 292 293 292 289 290 288 287 289 291 287 292 292 291 291 290 293 288 293 296 295 299 298 300 302 302
309 309 309 303 299 302 305 303 302 285 278 290 295 294 294 298 297 300 301 302 300 294 294 292 297 294 291 294 294 293 290 290 292 290 285 291 289 288 292 297 298 299 300 301 301
308 309 307 306 297 303 303 300 284 279 292 288 289 293 292 293 294 295 293 292 289 284 286 291 291 294 296 290 294 292 286 281 281 282 283 292 291 289 296 301 299 299 300 301 303
307 307 305 306 304 303 302 291 280 288 288 293 292 291 290 293 292 292 290 288 294 291 286 284 283 292 294 291 287 288 288 283 280 281 282 293 287 292 298 302 301 301 301 302 301
306 301 302 307 308 303 295 281 280 288 292 290 290 287 288 291 290 290 289 289 291 292 285 285 286 295 293 295 293 290 284 291 285 287 285 289 292 298 299 299 300 300 301 301 302
298 298 302 305 304 300 288 285 287 295 294 292 283 289 285 287 288 288 288 294 292 295 295 290 285 292 292 295 295 289 293 284 285 281 282 286 288 289 294 296 299 297 298 317 326
297 296 300 304 302 292 281 285 292 298 295 290 287 288 288 288 288 287 289 292 295 294 295 293 289 287 291 289 289 289 289 291 289 288 284 281 286 302 300 297 296 308 316 322 323
293 289 300 302 290 288 286 293 297 294 296 294 293 291 289 290 287 288 288 291 298 296 289 293 291 283 287 293 296 292 291 291 284 285 290 287 289 306 305 305 314 316 318 320 321
291 292 299 299 284 284 290 292 295 292 294 293 291 294 294 290 286 290 291 297 298 296 291 293 289 279 284 289 294 290 293 293 294 291 287 285 292 307 310 313 315 315 317 317 319
291 285 290 290 290 286 286 289 289 296 295 295 294 296 292 290 292 289 290 295 296 297 300 297 290 286 280 287 290 288 292 294 295 286 289 292 297 303 309 312 314 315 316 315 315
290 285 289 282 285 287 287 290 288 288 294 295 292 293 290 286 288 289 291 291 295 298 297 295 287 288 291 293 293 291 291 294 293 293 291 296 298 302 306 309 312 313 312 311 311
288 288 290 286 289 288 288 287 288 290 292 291 290 293 293 289 290 287 289 290 290 296 292 296 288 289 288 294 293 291 294 294 296 296 294 300 300 307 309 310 309 309 308 305 304
294 296 290 288 286 285 286 287 289 291 294 295 294 293 291 291 294 294 295 295 294 293 292 291 290 289 281 291 291 286 292 294 296 299 300 296 302 307 305 305 305 304 304 302 303
Wind_Speed
18 19 19 19 20 20 20 20 20 20 19 19 19 19 19 20 22 7 9 11 10 16 11 6 4 4 2 5 5 1 4 14 19 12 9 8 4 5 4 11 15 6 12 25 24
20 20 21 21 22 22 23 23 23 22 20 19 19 17 18 19 15 16 16 10 16 17 10 9 10 5 3 5 5 7 10 13 4 14 6 16 7 7 8 11 6 13 15 24 25
20 20 21 21 22 22 22 23 22 22 21 19 18 17 17 15 6 8 3 11 11 11 8 9 9 4 6 4 7 6 22 18 11 12 8 15 15 5 8 11 8 21 25 24 25
20 21 21 22 23 23 24 24 23 22 20 19 17 14 14 5 6 5 4 18 17 7 5 3 6 4 5 8 7 8 16 19 5 8 7 18 7 10 7 13 7 19 23 23 26
21 22 23 24 25 25 25 25 24 22 19 18 16 12 4 4 15 12 21 18 13 7 5 6 7 5 5 5 5 13 12 7 12 14 19 13 15 7 17 19 5 13 21 21 19
21 22 24 25 25 26 25 23 22 21 19 16 12 9 3 10 7 9 11 10 9 3 1 1 4 10 8 7 15 6 5 10 13 13 11 20 18 5 21 9 1 9 16 18 18
22 23 25 25 26 27 28 25 23 19 19 14 9 6 6 20 5 6 12 6 4 5 4 4 4 6 2 14 15 15 16 15 13 18 21 3 16 26 21 9 11 8 10 9 17
23 24 26 27 26 28 28 28 26 22 17 10 7 5 9 8 7 11 7 9 11 11 10 11 6 6 6 8 17 4 5 13 23 14 23 12 23 25 10 9 11 6 7 12 7
24 25 27 29 27 29 28 28 32 17 2 9 7 5 12 10 5 10 10 9 8 8 3 3 4 6 3 3 7 4 10 14 15 14 9 19 21 20 10 11 11 8 7 11 9
26 26 28 28 28 26 26 27 24 6 7 7 2 2 5 5 6 8 10 12 11 5 1 2 2 2 2 5 12 13 10 15 15 14 12 21 15 9 10 10 11 8 8 8 10
27 28 28 29 29 24 16 7 7 4 4 6 10 13 20 16 17 19 12 5 4 2 5 4 4 10 16 12 13 17 16 17 10 12 12 23 13 11 8 6 7 8 8 9 10
28 28 29 30 29 28 1 1 5 5 11 9 11 12 17 10 10 16 15 9 5 10 6 4 15 14 13 14 16 17 20 20 15 15 13 17 10 16 9 7 8 10 9 11 8
27 26 29 30 32 5 3 6 5 5 2 9 6 6 5 13 12 14 6 2 6 16 17 14 13 10 16 16 18 20 16 13 13 16 19 6 15 9 16 12 7 8 11 12 13
29 26 26 29 5 6 7 4 5 1 5 7 3 6 12 11 4 5 3 1 3 10 14 10 18 21 17 17 17 17 12 13 17 12 11 16 12 9 16 16 12 10 10 14 9
30 28 25 18 5 4 8 2 5 4 3 17 4 7 18 5 13 1 3 3 8 11 2 8 4 13 17 16 17 13 12 17 15 16 9 12 8 15 10 12 20 13 12 14 11
32 30 24 2 1 10 7 8 4 6 5 9 14 19 17 14 12 7 4 1 1 7 15 20 14 11 8 9 12 11 14 17 16 12 12 15 8 7 9 22 15 8 10 12 10
34 31 13 3 6 2 5 5 6 6 12 11 24 20 20 11 12 9 13 5 3 5 5 8 21 17 15 4 8 6 12 3 6 7 6 6 1 9 18 19 12 11 11 11 13
36 24 5 6 7 3 5 7 7 8 11 16 15 18 6 14 11 14 10 5 3 7 4 4 4 14 17 9 7 10 8 3 4 5 5 4 7 9 13 15 12 11 13 12 10
25 6 5 6 6 4 6 6 2 6 12 17 13 5 9 15 6 12 7 2 1 4 4 4 6 7 13 12 7 6 9 4 5 3 5 7 5 6 6 8 10 12 11 12 12
4 5 6 8 3 6 7 3 5 9 10 5 3 4 12 14 12 12 5 2 4 4 5 3 8 3 13 12 9 6 13 5 4 3 4 5 4 5 9 10 14 10 10 16 21
4 5 5 8 6 7 4 4 7 13 7 4 6 8 9 9 11 7 5 9 2 7 6 8 3 4 9 5 8 4 4 4 3 3 3 6 6 6 8 9 12 12 16 24 23
4 4 4 5 6 2 4 8 11 16 10 4 4 3 6 10 11 8 8 7 10 12 7 4 4 3 5 2 10 5 8 9 4 5 3 2 3 11 10 18 23 21 22 25 25
4 4 4 7 4 4 6 7 12 16 14 6 6 2 10 8 10 8 6 7 10 11 2 3 1 3 5 7 6 1 10 6 4 3 3 2 1 9 7 17 23 26 25 25 25
3 6 7 6 2 3 5 6 12 11 8 7 9 6 12 14 8 13 19 8 19 10 11 5 1 2 3 4 6 7 12 5 7 3 5 3 11 9 11 16 18 24 23 25 22
5 2 1 6 6 10 8 9 16 13 3 6 5 11 18 13 18 6 14 22 9 7 5 3 3 4 5 11 10 12 15 8 7 9 1 2 9 5 6 12 18 23 25 27 24
3 4 4 4 6 8 6 8 12 21 12 10 12 26 18 16 11 23 24 17 6 3 2 1 3 1 2 2 7 16 12 3 5 11 7 4 7 3 7 16 19 22 23 25 23
3 4 1 5 6 5 3 11 18 16 10 12 20 21 20 11 23 27 21 17 14 12 6 3 1 1 1 1 8 8 4 8 5 2 9 12 5 5 16 17 17 20 22 23 22
Wind_Direction
351 348 343 339 337 334 332 330 328 326 326 325 324 325 326 327 323 310 247 222 196 254 278 274 289 282 349 229 206 227 205 232 225 203 237 282 276 256 276 260 276 194 161 160 149
347 343 340 338 336 332 330 327 325 323 321 322 322 323 325 326 312 270 250 217 235 257 252 247 260 266 234 216 209 181 223 231 194 217 234 264 252 333 330 332 320 95 123 134 138
343 338 335 331 327 324 321 320 321 317 316 317 318 320 323 327 326 249 249 174 216 320 276 245 217 230 221 188 213 208 233 230 259 235 242 262 273 304 311 290 246 144 147 147 144
335 332 328 326 323 320 317 315 314 313 314 309 310 314 307 329 302 284 230 316 311 320 287 139 191 228 210 218 217 255 243 235 264 278 260 254 314 281 239 264 292 157 157 158 154
332 328 327 323 320 317 315 315 313 311 309 299 302 298 317 256 247 260 293 295 319 346 236 178 181 183 226 257 274 249 249 255 248 248 270 281 259 297 277 282 262 189 160 166 169
330 327 323 321 319 317 314 312 308 308 303 295 286 276 219 269 247 274 276 307 290 325 301 340 211 199 264 240 243 293 290 267 259 261 255 254 274 267 266 285 247 215 169 172 168
329 326 323 322 320 320 318 312 306 300 291 286 269 225 237 248 232 264 304 282 263 265 287 218 189 283 256 243 254 268 283 277 262 239 247 266 275 240 252 258 255 154 192 178 182
331 328 323 324 324 322 319 314 307 308 298 271 218 201 250 248 243 269 251 279 257 254 239 252 192 231 247 273 290 309 247 244 250 234 241 167 259 252 225 226 232 180 196 169 184
332 328 323 323 325 323 319 313 303 321 352 129 127 149 265 298 248 253 202 244 279 234 219 322 193 193 258 284 284 222 247 236 239 226 229 189 239 264 206 207 222 183 199 155 159
332 329 324 322 323 323 318 307 295 331 106 151 154 278 260 259 250 293 257 229 244 232 34 97 24 215 174 216 235 241 237 247 236 231 228 237 240 268 190 182 199 201 180 205 167
333 329 324 323 321 321 328 343 22 349 205 224 243 238 274 274 264 270 274 292 176 152 177 201 184 228 246 227 234 245 263 258 265 218 209 239 234 233 225 181 205 197 190 211 184
331 329 325 324 321 318 349 127 220 223 313 297 260 241 244 258 276 269 277 263 206 249 205 344 249 246 244 239 243 262 246 258 291 241 215 231 241 211 216 209 191 192 199 208 193
329 330 326 325 321 331 220 245 169 138 348 301 258 263 327 325 280 296 8 354 314 279 258 213 232 251 225 232 238 242 249 249 256 284 237 219 238 215 216 201 196 212 189 201 195
328 329 331 333 351 328 312 185 201 96 50 283 335 354 342 317 320 343 167 237 210 268 235 239 243 242 234 237 213 242 249 273 247 268 247 208 224 218 198 206 199 204 198 209 173
327 328 330 326 266 310 251 109 190 55 322 327 23 288 330 331 316 333 65 123 241 248 250 224 307 217 224 224 212 230 249 263 293 250 271 220 194 223 184 198 211 203 203 210 181
327 327 333 15 230 240 294 308 70 43 298 332 351 324 336 326 346 336 312 7 337 265 233 250 260 270 259 211 221 191 227 258 258 272 227 240 168 207 182 202 204 191 199 195 179
328 326 323 216 241 299 344 39 43 62 332 329 328 333 313 346 330 318 329 296 284 309 234 252 235 235 224 173 215 188 175 219 190 216 217 240 347 224 208 210 174 171 194 196 185
329 322 218 220 249 25 32 43 48 13 303 318 322 313 306 7 329 327 312 323 351 301 291 284 288 208 198 193 166 182 127 232 164 156 177 178 211 241 211 195 170 166 180 184 158
329 330 294 265 256 107 60 43 251 327 338 326 325 327 317 336 336 331 311 261 246 3 289 300 269 230 181 165 165 145 150 189 301 231 96 160 286 310 192 157 153 177 156 178 105
331 334 288 307 47 68 66 301 329 306 320 301 290 289 309 333 322 336 304 172 294 247 299 241 289 223 159 160 190 160 146 153 224 207 115 159 189 223 182 176 174 149 134 106 116
29 18 276 321 54 45 102 239 297 320 323 306 275 289 302 310 307 308 285 304 192 288 321 270 254 108 133 172 154 134 101 126 268 220 153 130 225 350 282 168 149 117 118 120 122
360 1 317 23 45 11 350 313 292 341 340 295 316 287 284 301 312 290 266 278 305 315 314 302 335 255 184 60 154 164 159 146 150 277 342 170 293 331 310 135 125 124 119 117 116
331 277 334 56 55 338 308 304 325 340 333 353 287 265 280 297 307 249 268 248 304 314 241 351 327 345 71 17 343 207 156 157 209 76 237 103 169 339 49 117 123 123 118 115 114
25 359 333 20 25 34 348 295 340 335 318 344 284 291 313 305 284 286 287 305 330 300 289 214 251 239 199 110 183 167 161 259 137 117 312 25 124 60 82 115 117 112 111 111 107
25 339 142 321 332 328 305 350 333 341 326 318 283 309 319 307 313 273 300 313 310 134 315 180 266 232 221 219 254 151 157 262 126 139 50 113 108 69 70 96 113 111 109 106 106
63 3 345 277 292 320 348 344 326 331 327 305 311 318 313 304 302 307 306 306 274 171 228 335 258 319 30 134 106 122 153 178 88 97 249 156 85 342 95 107 105 103 106 101 99
319 306 111 285 322 352 334 318 310 326 296 301 319 319 315 310 305 289 281 278 266 271 187 218 279 359 306 312 88 72 5 150 64 151 183 152 131 112 101 95 101 104 98 99 99